TimeMDT,TemperatureF,Dew PointF,Humidity,Sea Level PressureIn,VisibilityMPH,Wind Direction,Wind SpeedMPH,Gust SpeedMPH,PrecipitationIn,Events,Conditions,WindDirDegrees,DateUTC
12:00 AM,29.1,21.0,72,30.03,-9999.0,WNW,1.2,-,N/A,,Unknown,300,2013-04-02 06:00:00
1:00 AM,31.3,23.4,72,30.02,-9999.0,NW,1.2,-,N/A,,Unknown,320,2013-04-02 07:00:00
2:00 AM,30.4,21.6,70,30.02,-9999.0,SW,1.2,-,N/A,,Unknown,220,2013-04-02 08:00:00
3:00 AM,31.5,22.1,68,30.00,-9999.0,SW,4.6,-,N/A,,Unknown,220,2013-04-02 09:00:00
4:00 AM,29.3,21.7,73,30.00,-9999.0,WNW,1.2,-,N/A,,Unknown,290,2013-04-02 10:00:00
5:00 AM,30.4,21.9,71,29.98,-9999.0,South,2.3,-,N/A,,Unknown,180,2013-04-02 11:00:00
6:00 AM,30.4,22.5,72,29.97,-9999.0,SW,8.1,-,N/A,,Unknown,220,2013-04-02 12:00:00
7:00 AM,30.7,22.5,71,30.01,-9999.0,SW,6.9,-,N/A,,Unknown,220,2013-04-02 13:00:00
8:00 AM,31.8,22.6,69,30.01,-9999.0,SSW,5.8,-,N/A,,Unknown,210,2013-04-02 14:00:00
9:00 AM,34.7,22.8,62,30.01,-9999.0,SW,5.8,-,N/A,,Unknown,230,2013-04-02 15:00:00
10:00 AM,35.6,22.8,60,30.02,-9999.0,SW,9.2,-,N/A,,Unknown,230,2013-04-02 16:00:00
11:00 AM,45.3,23.2,42,29.99,-9999.0,SW,6.9,-,N/A,,Unknown,230,2013-04-02 17:00:00
12:00 PM,53.2,22.3,30,29.94,-9999.0,WSW,8.1,-,N/A,,Unknown,240,2013-04-02 18:00:00
1:00 PM,57.2,20.7,24,29.91,-9999.0,West,9.2,19.6,N/A,,Unknown,270,2013-04-02 19:00:00
2:00 PM,54.7,20.8,27,29.92,-9999.0,WSW,9.2,-,N/A,,Unknown,240,2013-04-02 20:00:00
3:00 PM,55.9,21.2,26,29.90,-9999.0,SW,11.5,19.6,N/A,,Unknown,230,2013-04-02 21:00:00
4:00 PM,57.4,21.2,25,29.88,-9999.0,SW,11.5,19.6,N/A,,Unknown,220,2013-04-02 22:00:00
5:00 PM,55.9,22.1,27,29.88,-9999.0,SW,11.5,20.7,N/A,,Unknown,230,2013-04-02 23:00:00
6:00 PM,54.1,21.0,27,29.88,-9999.0,WSW,9.2,17.3,N/A,,Unknown,240,2013-04-03 00:00:00
7:00 PM,52.7,22.1,30,29.90,-9999.0,WSW,11.5,19.6,N/A,,Unknown,240,2013-04-03 01:00:00
8:00 PM,49.1,22.5,35,29.91,-9999.0,WSW,6.9,-,N/A,,Unknown,240,2013-04-03 02:00:00
9:00 PM,47.7,23.7,39,29.94,-9999.0,WSW,5.8,-,N/A,,Unknown,250,2013-04-03 03:00:00
10:00 PM,47.1,24.3,41,29.92,-9999.0,West,5.8,-,N/A,,Unknown,260,2013-04-03 04:00:00
11:00 PM,47.1,24.4,41,29.90,-9999.0,West,4.6,-,N/A,,Unknown,260,2013-04-03 05:00:00